P/2006 W1 ( Gibbs )

Japanese version
Home page
Updated on April 21, 2007

---------------------------------------------------------------------

* Profile

Discovery Date November 16, 2006
Magnitude 18.6 mag
Discoverer A. R. Gibbs (Catalina Sky Survey)

* Orbital Elements

The following orbital elements are taken from MPC 58780:

Epoch 2006 Apr. 15.0 TT = JDT 2453840.5
T 2006 Mar. 29.5695 TT                                  MPC
q   1.700293             (2000.0)            P               Q
n   0.0708434      Peri.  230.5708      +0.8906528      -0.4317620
a   5.784550       Node   154.0495      +0.4475548      +0.8877901
e   0.706063       Incl.   19.0109      -0.0802020      +0.1594058
P  13.9
From 103 observations 2006 Nov. 16-2007 Jan. 25, mean residual 0".7.

* Finding Charts

* Magnitudes Graph

        m1 = 12.0 + 5 log d + 10.0 log r

---------------------------------------------------------------------

The orbital elements are published at the MPC Ephemerides and Orbital Elements.
The charts are made with StellaNavigator Ver.2.0 for Windows (AstroArts / ASCII).
The magnitudes graphs are made with Comet for Windows.

---------------------------------------------------------------------

Copyright(C) Seiichi Yoshida (comet@aerith.net). All rights reserved.